TimeMST,TemperatureF,Dew PointF,Humidity,Sea Level PressureIn,VisibilityMPH,Wind Direction,Wind SpeedMPH,Gust SpeedMPH,PrecipitationIn,Events,Conditions,WindDirDegrees,DateUTC
12:53 AM,39.0,23.0,53,30.04,10.0,Calm,Calm,-,N/A,,Scattered Clouds,0,2012-11-19 07:53:00
1:53 AM,34.0,27.0,75,30.06,10.0,South,5.8,-,N/A,,Partly Cloudy,180,2012-11-19 08:53:00
2:53 AM,35.1,25.0,67,30.06,10.0,WSW,8.1,-,N/A,,Clear,240,2012-11-19 09:53:00
3:53 AM,34.0,25.0,70,30.04,10.0,SW,8.1,-,N/A,,Clear,230,2012-11-19 10:53:00
4:53 AM,30.2,24.8,80,30.00,10.0,WSW,6.9,-,N/A,,Clear,240,2012-11-19 11:53:00
5:53 AM,28.9,23.0,78,30.08,10.0,South,8.1,-,N/A,,Clear,190,2012-11-19 12:53:00
6:53 AM,28.0,23.0,81,30.07,10.0,SW,11.5,-,N/A,,Clear,230,2012-11-19 13:53:00
7:53 AM,28.9,24.1,82,30.08,10.0,SSW,11.5,-,N/A,,Partly Cloudy,210,2012-11-19 14:53:00
8:53 AM,36.0,25.0,64,30.07,10.0,SW,8.1,-,N/A,,Partly Cloudy,230,2012-11-19 15:53:00
9:53 AM,39.0,27.0,62,30.09,10.0,SSW,9.2,-,N/A,,Clear,210,2012-11-19 16:53:00
10:53 AM,42.1,28.0,58,30.07,10.0,SSW,8.1,-,N/A,,Clear,200,2012-11-19 17:53:00
11:53 AM,48.0,28.9,48,30.04,10.0,SSW,9.2,-,N/A,,Clear,210,2012-11-19 18:53:00
12:53 PM,53.1,30.9,43,30.00,10.0,SW,10.4,-,N/A,,Partly Cloudy,220,2012-11-19 19:53:00
1:53 PM,59.0,28.0,31,29.98,10.0,SW,12.7,-,N/A,,Partly Cloudy,230,2012-11-19 20:53:00
2:53 PM,57.9,28.0,32,29.97,10.0,SW,9.2,-,N/A,,Partly Cloudy,230,2012-11-19 21:53:00
3:53 PM,57.0,28.0,33,29.99,10.0,SW,10.4,-,N/A,,Partly Cloudy,220,2012-11-19 22:53:00
4:53 PM,54.0,27.0,35,30.01,10.0,WSW,12.7,-,N/A,,Partly Cloudy,240,2012-11-19 23:53:00
5:53 PM,51.1,27.0,39,30.04,10.0,WSW,9.2,-,N/A,,Clear,250,2012-11-20 00:53:00
6:53 PM,51.1,28.0,41,30.02,10.0,WSW,12.7,-,N/A,,Clear,250,2012-11-20 01:53:00
7:53 PM,50.0,28.9,44,30.01,10.0,WSW,15.0,-,N/A,,Clear,240,2012-11-20 02:53:00
8:53 PM,50.0,28.0,43,29.99,10.0,SW,9.2,-,N/A,,Clear,230,2012-11-20 03:53:00
9:53 PM,50.0,28.0,43,29.96,10.0,WSW,12.7,-,N/A,,Clear,240,2012-11-20 04:53:00
10:53 PM,48.0,28.0,46,29.96,10.0,WSW,9.2,-,N/A,,Clear,250,2012-11-20 05:53:00
11:53 PM,48.9,28.0,44,29.94,10.0,WSW,12.7,-,N/A,,Clear,250,2012-11-20 06:53:00